| time (UTC) | temp F | wind direction | speed knots | gust knots | rain 1hr in | rain 24hr in | rain mn in | humidity % | barometer mb |
| 20260906205832 | 87 | 264 | 2.6 | 3.5 | 0.00 | 0.00 | 0.00 | 26 | 1012.0 |
| 20260906205328 | 87 | 277 | 3.5 | 4.3 | 0.00 | 0.00 | 0.00 | 27 | 1012.3 |
| 20260906204824 | 86 | 356 | 0.0 | 0.9 | 0.00 | 0.00 | 0.00 | 26 | 1012.2 |
| 20260906204323 | 85 | 78 | 0.0 | 0.0 | 0.00 | 0.00 | 0.00 | 28 | 1012.3 |
| 20260906203822 | 84 | 141 | 1.7 | 1.7 | 0.00 | 0.00 | 0.00 | 28 | 1012.3 |
| 20260906203318 | 85 | 111 | 1.7 | 1.7 | 0.00 | 0.00 | 0.00 | 27 | 1012.4 |
| 20260906202815 | 84 | 275 | 0.9 | 1.7 | 0.00 | 0.00 | 0.00 | 27 | 1012.4 |
| 20260906202314 | 86 | 225 | 3.5 | 5.2 | 0.00 | 0.00 | 0.00 | 27 | 1012.5 |
| 20260906201809 | 84 | 33 | 2.6 | 3.5 | 0.00 | 0.00 | 0.00 | 27 | 1012.6 |
| 20260906201308 | 84 | 271 | 3.5 | 4.3 | 0.00 | 0.00 | 0.00 | 27 | 1012.6 |
| 20260906200804 | 84 | 254 | 2.6 | 3.5 | 0.00 | 0.00 | 0.00 | 27 | 1012.5 |
| 20260906200300 | 83 | 221 | 0.9 | 1.7 | 0.00 | 0.00 | 0.00 | 27 | 1012.8 |
| 20260906195755 | 85 | 228 | 3.5 | 4.3 | 0.00 | 0.00 | 0.00 | 27 | 1012.8 |
| 20260906195251 | 84 | 98 | 1.7 | 1.7 | 0.00 | 0.00 | 0.00 | 27 | 1012.9 |
| 20260906194747 | 84 | 233 | 1.7 | 1.7 | 0.00 | 0.00 | 0.00 | 27 | 1012.9 |
| 20260906194243 | 84 | 52 | 0.0 | 0.0 | 0.00 | 0.00 | 0.00 | 27 | 1013.0 |
| 20260906193737 | 83 | 44 | 0.9 | 0.9 | 0.00 | 0.00 | 0.00 | 28 | 1013.3 |
| 20260906193231 | 83 | 189 | 0.9 | 0.9 | 0.00 | 0.00 | 0.00 | 29 | 1013.3 |
| 20260906192728 | 81 | 108 | 0.0 | 0.9 | 0.00 | 0.00 | 0.00 | 28 | 1013.2 |
| 20260906192228 | 82 | 140 | 1.7 | 1.7 | 0.00 | 0.00 | 0.00 | 28 | 1013.4 |
| 20260906191721 | 82 | 43 | 1.7 | 1.7 | 0.00 | 0.00 | 0.00 | 29 | 1013.6 |
| 20260906191221 | 81 | 297 | 0.9 | 0.9 | 0.00 | 0.00 | 0.00 | 30 | 1013.4 |
| 20260906190716 | 81 | 255 | 2.6 | 3.5 | 0.00 | 0.00 | 0.00 | 30 | 1013.4 |
| 20260906190210 | 82 | 286 | 2.6 | 3.5 | 0.00 | 0.00 | 0.00 | 30 | 1013.5 |
| 20260906185710 | 82 | 322 | 1.7 | 1.7 | 0.00 | 0.00 | 0.00 | 29 | 1013.4 |
| 20260906185209 | 81 | 73 | 0.0 | 0.9 | 0.00 | 0.00 | 0.00 | 30 | 1013.6 |
| 20260906184703 | 80 | 84 | 0.9 | 0.9 | 0.00 | 0.00 | 0.00 | 29 | 1013.6 |
| 20260906184159 | 80 | 272 | 0.9 | 1.7 | 0.00 | 0.00 | 0.00 | 33 | 1013.4 |
| 20260906183655 | 80 | 16 | 0.0 | 0.9 | 0.00 | 0.00 | 0.00 | 31 | 1013.4 |
| 20260906183151 | 80 | 244 | 0.9 | 0.9 | 0.00 | 0.00 | 0.00 | 31 | 1013.6 |
| 20260906182650 | 79 | 33 | 0.0 | 0.0 | 0.00 | 0.00 | 0.00 | 32 | 1013.3 |
| 20260906182147 | 78 | 98 | 0.9 | 0.9 | 0.00 | 0.00 | 0.00 | 33 | 1013.4 |
| 20260906181642 | 78 | 248 | 1.7 | 4.3 | 0.00 | 0.00 | 0.00 | 34 | 1013.5 |
| 20260906181138 | 78 | 242 | 1.7 | 3.5 | 0.00 | 0.00 | 0.00 | 33 | 1013.3 |
| 20260906180632 | 78 | 189 | 0.9 | 0.9 | 0.00 | 0.00 | 0.00 | 35 | 1013.3 |
| 20260906180127 | 77 | 234 | 1.7 | 1.7 | 0.00 | 0.00 | 0.00 | 36 | 1013.3 |
| 20260906175625 | 77 | 258 | 2.6 | 4.3 | 0.00 | 0.00 | 0.00 | 38 | 1013.5 |
| 20260906175120 | 76 | 269 | 1.7 | 1.7 | 0.00 | 0.00 | 0.00 | 37 | 1013.5 |
| 20260906174618 | 76 | 72 | 0.0 | 0.9 | 0.00 | 0.00 | 0.00 | 39 | 1013.5 |
| 20260906174113 | 76 | 326 | 1.7 | 1.7 | 0.00 | 0.00 | 0.00 | 39 | 1013.6 |
| 20260906173609 | 76 | 324 | 0.9 | 0.9 | 0.00 | 0.00 | 0.00 | 41 | 1013.6 |
| 20260906173104 | 74 | 244 | 0.0 | 0.0 | 0.00 | 0.00 | 0.00 | 41 | 1013.7 |
| 20260906172558 | 74 | 240 | 1.7 | 1.7 | 0.00 | 0.00 | 0.00 | 41 | 1013.8 |
| 20260906172054 | 75 | 58 | 0.9 | 0.9 | 0.00 | 0.00 | 0.00 | 40 | 1013.7 |
| 20260906171553 | 75 | 274 | 0.9 | 0.9 | 0.00 | 0.00 | 0.00 | 40 | 1013.6 |
| 20260906171049 | 74 | 335 | 0.0 | 0.9 | 0.00 | 0.00 | 0.00 | 41 | 1013.6 |
| 20260906170545 | 73 | 271 | 1.7 | 1.7 | 0.00 | 0.00 | 0.00 | 43 | 1013.6 |
| 20260906170043 | 72 | 233 | 1.7 | 3.5 | 0.00 | 0.00 | 0.00 | 42 | 1013.6 |
| 20260906165541 | 73 | 58 | 0.0 | 0.9 | 0.00 | 0.00 | 0.00 | 42 | 1013.4 |
| 20260906165035 | 72 | 34 | 0.9 | 0.9 | 0.00 | 0.00 | 0.00 | 42 | 1013.6 |
| 20260906164534 | 72 | 149 | 0.9 | 0.9 | 0.00 | 0.00 | 0.00 | 44 | 1013.5 |
| 20260906164031 | 71 | 330 | 0.9 | 0.9 | 0.00 | 0.00 | 0.00 | 46 | 1013.4 |
| 20260906163526 | 70 | 245 | 1.7 | 1.7 | 0.00 | 0.00 | 0.00 | 48 | 1013.4 |
| 20260906163021 | 70 | 257 | 1.7 | 1.7 | 0.00 | 0.00 | 0.00 | 47 | 1013.4 |
| 20260906162518 | 70 | 77 | 0.0 | 0.0 | 0.00 | 0.00 | 0.00 | 48 | 1013.5 |
| 20260906162013 | 70 | 242 | 1.7 | 1.7 | 0.00 | 0.00 | 0.00 | 47 | 1013.6 |
| 20260906161508 | 68 | 33 | 0.9 | 0.9 | 0.00 | 0.00 | 0.00 | 49 | 1013.5 |
| 20260906161007 | 68 | 58 | 0.0 | 0.9 | 0.00 | 0.00 | 0.00 | 51 | 1013.5 |
| 20260906160501 | 67 | 262 | 1.7 | 1.7 | 0.00 | 0.00 | 0.00 | 53 | 1013.5 |
| 20260906155958 | 67 | 269 | 0.0 | 0.9 | 0.00 | 0.00 | 0.00 | 52 | 1013.5 |
| 20260906155457 | 66 | 299 | 0.0 | 0.0 | 0.00 | 0.00 | 0.00 | 54 | 1013.5 |
| 20260906154953 | 65 | 250 | 1.7 | 1.7 | 0.00 | 0.00 | 0.00 | 55 | 1013.6 |
| 20260906154449 | 65 | 249 | 0.9 | 0.9 | 0.00 | 0.00 | 0.00 | 55 | 1013.6 |
| 20260906153947 | 64 | 259 | 1.7 | 1.7 | 0.00 | 0.00 | 0.00 | 56 | 1013.4 |
| 20260906153446 | 64 | 276 | 1.7 | 1.7 | 0.00 | 0.00 | 0.00 | 57 | 1013.6 |
| 20260906152942 | 64 | 252 | 1.7 | 1.7 | 0.00 | 0.00 | 0.00 | 56 | 1013.5 |
| 20260906152441 | 64 | 255 | 0.9 | 1.7 | 0.00 | 0.00 | 0.00 | 58 | 1013.4 |
| 20260906151941 | 63 | 304 | 0.9 | 0.9 | 0.00 | 0.00 | 0.00 | 58 | 1013.5 |
| 20260906151436 | 63 | 303 | 0.9 | 0.9 | 0.00 | 0.00 | 0.00 | 58 | 1013.6 |
| 20260906150932 | 63 | 253 | 1.7 | 1.7 | 0.00 | 0.00 | 0.00 | 58 | 1013.4 |
| 20260906150427 | 63 | 279 | 0.9 | 0.9 | 0.00 | 0.00 | 0.00 | 61 | 1013.3 |
| 20260906145927 | 64 | 49 | 0.9 | 0.9 | 0.00 | 0.00 | 0.00 | 59 | 1013.5 |
| 20260906145426 | 63 | 48 | 0.0 | 0.0 | 0.00 | 0.00 | 0.00 | 60 | 1013.4 |
| 20260906144920 | 62 | 38 | 0.0 | 0.9 | 0.00 | 0.00 | 0.00 | 63 | 1013.3 |
| 20260906144415 | 61 | 267 | 0.9 | 0.9 | 0.00 | 0.00 | 0.00 | 65 | 1013.3 |
| 20260906143910 | 60 | 269 | 0.9 | 1.7 | 0.00 | 0.00 | 0.00 | 68 | 1013.3 |
| 20260906143406 | 60 | 289 | 0.9 | 1.7 | 0.00 | 0.00 | 0.00 | 69 | 1013.2 |
| 20260906142902 | 60 | 271 | 0.9 | 1.7 | 0.00 | 0.00 | 0.00 | 69 | 1013.0 |
| 20260906142355 | 59 | 324 | 0.9 | 0.9 | 0.00 | 0.00 | 0.00 | 70 | 1013.1 |
| 20260906141850 | 59 | 354 | 0.0 | 0.0 | 0.00 | 0.00 | 0.00 | 71 | 1012.9 |
| 20260906141345 | 58 | 39 | 0.0 | 0.0 | 0.00 | 0.00 | 0.00 | 72 | 1013.1 |
| 20260906140844 | 58 | 40 | 0.0 | 0.0 | 0.00 | 0.00 | 0.00 | 72 | 1012.9 |
| 20260906140339 | 58 | 39 | 0.0 | 0.0 | 0.00 | 0.00 | 0.00 | 72 | 1012.9 |
| 20260906135836 | 58 | 42 | 0.0 | 0.0 | 0.00 | 0.00 | 0.00 | 72 | 1012.9 |
| 20260906135331 | 58 | 36 | 0.0 | 0.9 | 0.00 | 0.00 | 0.00 | 72 | 1012.8 |
| 20260906134827 | 58 | 8 | 0.0 | 0.0 | 0.00 | 0.00 | 0.00 | 71 | 1012.7 |
| 20260906134322 | 58 | 359 | 0.0 | 0.0 | 0.00 | 0.00 | 0.00 | 71 | 1012.9 |
| 20260906133818 | 58 | 0 | 0.0 | 0.0 | 0.00 | 0.00 | 0.00 | 71 | 1012.7 |
| 20260906133313 | 58 | 0 | 0.0 | 0.0 | 0.00 | 0.00 | 0.00 | 70 | 1012.5 |
| 20260906132808 | 59 | 359 | 0.0 | 0.0 | 0.00 | 0.00 | 0.00 | 69 | 1012.7 |
| 20260906132306 | 59 | 3 | 0.0 | 0.0 | 0.00 | 0.00 | 0.00 | 68 | 1012.7 |
| 20260906131759 | 59 | 1 | 0.0 | 0.0 | 0.00 | 0.00 | 0.00 | 67 | 1012.7 |
| 20260906131254 | 59 | 285 | 0.0 | 0.0 | 0.00 | 0.00 | 0.00 | 66 | 1012.6 |
| 20260906130749 | 59 | 278 | 0.9 | 0.9 | 0.00 | 0.00 | 0.00 | 65 | 1012.5 |
| 20260906130244 | 59 | 266 | 0.0 | 0.9 | 0.00 | 0.00 | 0.00 | 64 | 1012.5 |
| 20260906125743 | 59 | 294 | 0.0 | 0.0 | 0.00 | 0.00 | 0.00 | 64 | 1012.7 |
| 20260906125241 | 60 | 271 | 1.7 | 1.7 | 0.00 | 0.00 | 0.00 | 64 | 1012.5 |
| 20260906124735 | 60 | 271 | 1.7 | 1.7 | 0.00 | 0.00 | 0.00 | 64 | 1012.5 |
| 20260906124231 | 60 | 260 | 1.7 | 3.5 | 0.00 | 0.00 | 0.00 | 64 | 1012.4 |
| 20260906123730 | 60 | 270 | 0.9 | 0.9 | 0.00 | 0.00 | 0.00 | 64 | 1012.3 |
| 20260906123226 | 60 | 309 | 0.0 | 0.9 | 0.00 | 0.00 | 0.00 | 64 | 1012.4 |
| 20260906122725 | 60 | 267 | 0.9 | 0.9 | 0.00 | 0.00 | 0.00 | 65 | 1012.4 |
| 20260906122220 | 60 | 281 | 0.0 | 0.0 | 0.00 | 0.00 | 0.00 | 67 | 1012.5 |
| 20260906121717 | 60 | 346 | 0.0 | 0.0 | 0.00 | 0.00 | 0.00 | 68 | 1012.3 |
| 20260906121213 | 60 | 345 | 0.0 | 0.0 | 0.00 | 0.00 | 0.00 | 67 | 1012.4 |
| 20260906120708 | 60 | 23 | 0.0 | 0.0 | 0.00 | 0.00 | 0.00 | 66 | 1012.4 |
| 20260906120205 | 60 | 23 | 0.0 | 0.0 | 0.00 | 0.00 | 0.00 | 65 | 1012.3 |
| 20260906115700 | 60 | 349 | 0.0 | 0.0 | 0.00 | 0.00 | 0.00 | 66 | 1012.1 |
| 20260906115155 | 61 | 347 | 0.0 | 0.0 | 0.00 | 0.00 | 0.00 | 66 | 1012.4 |
| 20260906114654 | 61 | 35 | 0.0 | 0.0 | 0.00 | 0.00 | 0.00 | 65 | 1012.3 |
| 20260906114150 | 61 | 293 | 0.0 | 0.0 | 0.00 | 0.00 | 0.00 | 65 | 1012.4 |
| 20260906113649 | 61 | 288 | 0.9 | 0.9 | 0.00 | 0.00 | 0.00 | 65 | 1012.2 |
| 20260906113144 | 61 | 35 | 0.0 | 0.0 | 0.00 | 0.00 | 0.00 | 64 | 1012.1 |
| 20260906112643 | 61 | 273 | 0.0 | 0.0 | 0.00 | 0.00 | 0.00 | 64 | 1012.3 |
| 20260906112141 | 61 | 8 | 0.0 | 0.0 | 0.00 | 0.00 | 0.00 | 64 | 1012.2 |
| 20260906111640 | 61 | 108 | 0.0 | 0.0 | 0.00 | 0.00 | 0.00 | 64 | 1012.1 |
| 20260906111134 | 62 | 31 | 0.0 | 0.0 | 0.00 | 0.00 | 0.00 | 64 | 1012.1 |
| 20260906110629 | 62 | 292 | 0.9 | 0.9 | 0.00 | 0.00 | 0.00 | 64 | 1012.2 |
| 20260906110124 | 62 | 243 | 0.0 | 0.9 | 0.00 | 0.00 | 0.00 | 63 | 1012.3 |
| 20260906105618 | 62 | 48 | 0.0 | 0.0 | 0.00 | 0.00 | 0.00 | 63 | 1012.0 |
| 20260906105115 | 62 | 257 | 0.0 | 0.0 | 0.00 | 0.00 | 0.00 | 63 | 1012.1 |
| 20260906104614 | 62 | 199 | 0.9 | 0.9 | 0.00 | 0.00 | 0.00 | 63 | 1012.0 |
| 20260906104108 | 62 | 250 | 0.9 | 0.9 | 0.00 | 0.00 | 0.00 | 62 | 1012.1 |
| 20260906103606 | 63 | 264 | 0.0 | 0.0 | 0.00 | 0.00 | 0.00 | 62 | 1011.9 |
| 20260906103102 | 63 | 274 | 0.9 | 0.9 | 0.00 | 0.00 | 0.00 | 62 | 1012.0 |
| 20260906102602 | 63 | 250 | 0.9 | 0.9 | 0.00 | 0.00 | 0.00 | 62 | 1012.2 |
| 20260906102056 | 63 | 300 | 0.9 | 0.9 | 0.00 | 0.00 | 0.00 | 62 | 1012.1 |
| 20260906101551 | 63 | 82 | 0.0 | 0.9 | 0.00 | 0.00 | 0.00 | 61 | 1012.2 |
| 20260906101045 | 63 | 334 | 0.0 | 0.9 | 0.00 | 0.00 | 0.00 | 61 | 1012.2 |
| 20260906100541 | 63 | 245 | 0.9 | 1.7 | 0.00 | 0.00 | 0.00 | 60 | 1012.2 |
| 20260906100036 | 63 | 261 | 0.9 | 0.9 | 0.00 | 0.00 | 0.00 | 60 | 1012.1 |
| 20260906095530 | 63 | 269 | 2.6 | 3.5 | 0.00 | 0.00 | 0.00 | 60 | 1012.3 |
| 20260906095026 | 63 | 291 | 0.0 | 0.9 | 0.00 | 0.00 | 0.00 | 60 | 1012.2 |
| 20260906094525 | 63 | 257 | 2.6 | 3.5 | 0.00 | 0.00 | 0.00 | 61 | 1012.3 |
| 20260906094021 | 63 | 255 | 1.7 | 1.7 | 0.00 | 0.00 | 0.00 | 60 | 1012.2 |
| 20260906093517 | 64 | 257 | 1.7 | 3.5 | 0.00 | 0.00 | 0.00 | 61 | 1012.2 |
| 20260906093016 | 64 | 359 | 0.0 | 0.9 | 0.00 | 0.00 | 0.00 | 61 | 1012.1 |
| 20260906092511 | 64 | 269 | 1.7 | 1.7 | 0.00 | 0.00 | 0.00 | 60 | 1012.3 |
| 20260906092007 | 64 | 258 | 2.6 | 3.5 | 0.00 | 0.00 | 0.00 | 60 | 1011.9 |
| 20260906091502 | 64 | 289 | 1.7 | 3.5 | 0.00 | 0.00 | 0.00 | 59 | 1012.1 |
| 20260906090959 | 64 | 261 | 2.6 | 3.5 | 0.00 | 0.00 | 0.00 | 59 | 1012.2 |
| 20260906090453 | 64 | 273 | 2.6 | 3.5 | 0.00 | 0.00 | 0.00 | 60 | 1012.4 |
| 20260906085953 | 64 | 256 | 1.7 | 1.7 | 0.00 | 0.00 | 0.00 | 59 | 1012.1 |
| 20260906085452 | 64 | 291 | 2.6 | 3.5 | 0.00 | 0.00 | 0.00 | 59 | 1012.4 |
| 20260906084951 | 65 | 277 | 1.7 | 1.7 | 0.00 | 0.00 | 0.00 | 59 | 1012.5 |
| 20260906084447 | 65 | 242 | 2.6 | 3.5 | 0.00 | 0.00 | 0.00 | 58 | 1012.4 |
| 20260906083945 | 65 | 285 | 2.6 | 4.3 | 0.00 | 0.00 | 0.00 | 58 | 1012.4 |
| 20260906083442 | 65 | 266 | 1.7 | 1.7 | 0.00 | 0.00 | 0.00 | 58 | 1012.5 |
| 20260906082940 | 65 | 269 | 1.7 | 1.7 | 0.00 | 0.00 | 0.00 | 58 | 1012.2 |
| 20260906082436 | 65 | 277 | 2.6 | 3.5 | 0.00 | 0.00 | 0.00 | 59 | 1012.4 |
| 20260906081931 | 66 | 251 | 1.7 | 1.7 | 0.00 | 0.00 | 0.00 | 59 | 1012.3 |
| 20260906081427 | 66 | 339 | 0.0 | 0.0 | 0.00 | 0.00 | 0.00 | 58 | 1012.2 |
| 20260906080923 | 66 | 278 | 1.7 | 1.7 | 0.00 | 0.00 | 0.00 | 57 | 1012.3 |
| 20260906080419 | 66 | 291 | 0.9 | 0.9 | 0.00 | 0.00 | 0.00 | 57 | 1012.2 |
| 20260906075918 | 66 | 291 | 1.7 | 1.7 | 0.00 | 0.00 | 0.00 | 56 | 1012.2 |
| 20260906075414 | 67 | 266 | 2.6 | 4.3 | 0.00 | 0.00 | 0.00 | 55 | 1012.1 |
| 20260906074909 | 67 | 263 | 2.6 | 3.5 | 0.00 | 0.00 | 0.00 | 55 | 1012.2 |
| 20260906074403 | 67 | 273 | 3.5 | 3.5 | 0.00 | 0.00 | 0.00 | 55 | 1012.1 |
| 20260906073901 | 67 | 261 | 1.7 | 1.7 | 0.00 | 0.00 | 0.00 | 55 | 1012.0 |
| 20260906073356 | 68 | 248 | 1.7 | 1.7 | 0.00 | 0.00 | 0.00 | 55 | 1012.1 |
| 20260906072853 | 68 | 264 | 2.6 | 3.5 | 0.00 | 0.00 | 0.00 | 54 | 1011.9 |
| 20260906072348 | 68 | 258 | 3.5 | 4.3 | 0.00 | 0.00 | 0.00 | 53 | 1012.0 |
| 20260906071844 | 68 | 273 | 1.7 | 1.7 | 0.00 | 0.00 | 0.00 | 52 | 1012.1 |
| 20260906071339 | 69 | 271 | 2.6 | 3.5 | 0.00 | 0.00 | 0.00 | 51 | 1011.9 |
| 20260906070836 | 69 | 231 | 1.7 | 1.7 | 0.00 | 0.00 | 0.00 | 51 | 1011.9 |
| 20260906070331 | 69 | 260 | 2.6 | 3.5 | 0.00 | 0.00 | 0.00 | 51 | 1011.8 |
| 20260906065826 | 69 | 231 | 2.6 | 3.5 | 0.00 | 0.00 | 0.00 | 52 | 1011.9 |
| 20260906065321 | 69 | 261 | 1.7 | 1.7 | 0.00 | 0.00 | 0.00 | 52 | 1011.7 |
| 20260906064817 | 69 | 216 | 0.0 | 0.9 | 0.00 | 0.00 | 0.00 | 54 | 1011.9 |
| 20260906064313 | 70 | 255 | 0.0 | 0.0 | 0.00 | 0.00 | 0.00 | 53 | 1011.9 |
| 20260906063807 | 70 | 303 | 0.0 | 0.0 | 0.00 | 0.00 | 0.00 | 52 | 1011.9 |
| 20260906063303 | 70 | 255 | 0.9 | 0.9 | 0.00 | 0.00 | 0.00 | 50 | 1011.8 |
| 20260906062757 | 71 | 241 | 0.9 | 1.7 | 0.00 | 0.00 | 0.00 | 50 | 1012.0 |
| 20260906062256 | 71 | 278 | 0.9 | 0.9 | 0.00 | 0.00 | 0.00 | 50 | 1011.9 |
| 20260906061752 | 71 | 242 | 1.7 | 1.7 | 0.00 | 0.00 | 0.00 | 49 | 1012.0 |
| 20260906061249 | 71 | 274 | 1.7 | 1.7 | 0.00 | 0.00 | 0.00 | 49 | 1011.9 |
| 20260906060743 | 71 | 242 | 0.0 | 0.9 | 0.00 | 0.00 | 0.00 | 49 | 1011.8 |
| 20260906060241 | 71 | 250 | 0.9 | 0.9 | 0.00 | 0.00 | 0.00 | 50 | 1011.8 |
| 20260906055736 | 71 | 162 | 0.9 | 0.9 | 0.00 | 0.00 | 0.00 | 49 | 1011.9 |
| 20260906055232 | 71 | 243 | 2.6 | 4.3 | 0.00 | 0.00 | 0.00 | 49 | 1011.7 |
| 20260906054727 | 71 | 244 | 0.9 | 0.9 | 0.00 | 0.00 | 0.00 | 49 | 1011.6 |
| 20260906054222 | 72 | 258 | 1.7 | 1.7 | 0.00 | 0.00 | 0.00 | 49 | 1011.5 |
| 20260906053719 | 72 | 231 | 0.9 | 0.9 | 0.00 | 0.00 | 0.00 | 49 | 1011.8 |
| 20260906053214 | 72 | 242 | 0.9 | 0.9 | 0.00 | 0.00 | 0.00 | 50 | 1011.6 |
| 20260906052709 | 72 | 242 | 1.7 | 1.7 | 0.00 | 0.00 | 0.00 | 50 | 1011.6 |
| 20260906052205 | 72 | 292 | 0.9 | 0.9 | 0.00 | 0.00 | 0.00 | 51 | 1011.5 |
| 20260906051702 | 72 | 238 | 0.9 | 0.9 | 0.00 | 0.00 | 0.00 | 50 | 1011.7 |
| 20260906051201 | 72 | 247 | 0.9 | 0.9 | 0.00 | 0.00 | 0.00 | 50 | 1011.7 |
| 20260906050657 | 72 | 265 | 2.6 | 3.5 | 0.00 | 0.00 | 0.00 | 49 | 1011.7 |
| 20260906050151 | 72 | 291 | 1.7 | 3.5 | 0.00 | 0.00 | 0.00 | 50 | 1011.8 |
| 20260906045650 | 72 | 250 | 1.7 | 1.7 | 0.00 | 0.00 | 0.00 | 51 | 1011.6 |
| 20260906045145 | 73 | 73 | 0.0 | 0.0 | 0.00 | 0.00 | 0.00 | 50 | 1011.9 |
| 20260906044641 | 73 | 67 | 0.0 | 0.0 | 0.00 | 0.00 | 0.00 | 49 | 1011.6 |
| 20260906044137 | 73 | 55 | 0.0 | 0.0 | 0.00 | 0.00 | 0.00 | 49 | 1011.6 |
| 20260906043633 | 73 | 232 | 0.0 | 0.0 | 0.00 | 0.00 | 0.00 | 49 | 1011.9 |
| 20260906043128 | 73 | 293 | 0.0 | 0.9 | 0.00 | 0.00 | 0.00 | 50 | 1011.6 |
| 20260906042627 | 74 | 295 | 0.9 | 1.7 | 0.00 | 0.00 | 0.00 | 50 | 1011.8 |
| 20260906042121 | 74 | 238 | 0.0 | 0.9 | 0.00 | 0.00 | 0.00 | 50 | 1011.6 |
| 20260906041618 | 75 | 209 | 0.9 | 1.7 | 0.00 | 0.00 | 0.00 | 49 | 1011.5 |
| 20260906041112 | 76 | 231 | 0.9 | 0.9 | 0.00 | 0.00 | 0.00 | 47 | 1011.4 |
| 20260906040608 | 77 | 251 | 1.7 | 3.5 | 0.00 | 0.00 | 0.00 | 46 | 1011.1 |
| 20260906035558 | 77 | 255 | 2.6 | 3.5 | 0.00 | 0.00 | 0.00 | 46 | 1010.9 |
| 20260906035054 | 75 | 256 | 0.0 | 0.9 | 0.00 | 0.00 | 0.00 | 49 | 1010.8 |
| 20260906034554 | 74 | 47 | 0.0 | 0.0 | 0.00 | 0.00 | 0.00 | 62 | 1010.8 |
| 20260906034049 | 75 | 47 | 0.0 | 0.0 | 0.00 | 0.00 | 0.00 | 61 | 1010.8 |
| 20260906033544 | 76 | 46 | 0.0 | 0.0 | 0.00 | 0.00 | 0.00 | 60 | 1010.6 |
| 20260906033039 | 75 | 46 | 0.0 | 0.0 | 0.00 | 0.00 | 0.00 | 54 | 1010.8 |
| 20260906032536 | 75 | 46 | 0.0 | 0.0 | 0.00 | 0.00 | 0.00 | 47 | 1010.4 |
| 20260906032030 | 75 | 44 | 0.0 | 0.0 | 0.00 | 0.00 | 0.00 | 49 | 1010.4 |
| 20260906031525 | 75 | 44 | 0.0 | 0.0 | 0.00 | 0.00 | 0.00 | 48 | 1010.4 |
| 20260906031016 | 76 | 44 | 0.0 | 0.0 | 0.00 | 0.00 | 0.00 | 48 | 1010.3 |
| 20260906030515 | 76 | 44 | 0.0 | 0.0 | 0.00 | 0.00 | 0.00 | 47 | 1010.3 |
| 20260906030014 | 77 | 44 | 0.0 | 0.0 | 0.00 | 0.00 | 0.00 | 46 | 1010.1 |
| 20260906025514 | 77 | 44 | 0.0 | 0.0 | 0.00 | 0.00 | 0.00 | 46 | 1010.2 |
| 20260906025012 | 78 | 44 | 0.0 | 0.0 | 0.00 | 0.00 | 0.00 | 44 | 1010.2 |
| 20260906024508 | 78 | 44 | 0.0 | 0.0 | 0.00 | 0.00 | 0.00 | 43 | 1010.2 |
| 20260906024008 | 78 | 44 | 0.0 | 0.0 | 0.00 | 0.00 | 0.00 | 44 | 1010.1 |
| 20260906023504 | 79 | 44 | 0.0 | 0.0 | 0.00 | 0.00 | 0.00 | 43 | 1010.1 |
| 20260906022959 | 79 | 44 | 0.0 | 0.0 | 0.00 | 0.00 | 0.00 | 41 | 1010.1 |
| 20260906022454 | 80 | 44 | 0.0 | 0.0 | 0.00 | 0.00 | 0.00 | 39 | 1010.2 |
| 20260906021949 | 81 | 44 | 0.0 | 0.0 | 0.00 | 0.00 | 0.00 | 40 | 1010.1 |
| 20260906021444 | 82 | 44 | 0.0 | 0.0 | 0.00 | 0.00 | 0.00 | 39 | 1010.1 |
| 20260906020938 | 83 | 44 | 0.0 | 0.0 | 0.00 | 0.00 | 0.00 | 39 | 1010.0 |
| 20260906020433 | 83 | 44 | 0.0 | 0.0 | 0.00 | 0.00 | 0.00 | 38 | 1010.2 |
| 20260906015927 | 83 | 51 | 0.0 | 0.0 | 0.00 | 0.00 | 0.00 | 38 | 1010.2 |
| 20260906015427 | 84 | 29 | 0.0 | 0.0 | 0.00 | 0.00 | 0.00 | 37 | 1010.0 |
| 20260906014926 | 85 | 354 | 0.0 | 0.0 | 0.00 | 0.00 | 0.00 | 34 | 1010.4 |
| 20260906014426 | 86 | 29 | 0.0 | 0.0 | 0.00 | 0.00 | 0.00 | 33 | 1010.1 |
| 20260906013922 | 86 | 327 | 0.0 | 0.0 | 0.00 | 0.00 | 0.00 | 31 | 1010.1 |
| 20260906013418 | 86 | 248 | 1.7 | 1.7 | 0.00 | 0.00 | 0.00 | 33 | 1010.2 |
| 20260906012914 | 86 | 315 | 0.9 | 0.9 | 0.00 | 0.00 | 0.00 | 32 | 1010.2 |
| 20260906012408 | 86 | 75 | 0.9 | 0.9 | 0.00 | 0.00 | 0.00 | 32 | 1010.4 |
| 20260906011907 | 87 | 258 | 0.9 | 0.9 | 0.00 | 0.00 | 0.00 | 31 | 1010.3 |
| 20260906011402 | 87 | 220 | 0.9 | 0.9 | 0.00 | 0.00 | 0.00 | 31 | 1010.5 |
| 20260906010858 | 88 | 21 | 0.0 | 0.9 | 0.00 | 0.00 | 0.00 | 29 | 1010.5 |
| 20260906010354 | 87 | 22 | 0.0 | 0.9 | 0.00 | 0.00 | 0.00 | 30 | 1010.3 |
| 20260906005850 | 88 | 243 | 2.6 | 3.5 | 0.00 | 0.00 | 0.00 | 29 | 1010.5 |
| 20260906005349 | 88 | 37 | 0.9 | 0.9 | 0.00 | 0.00 | 0.00 | 27 | 1010.4 |
| 20260906004847 | 89 | 39 | 0.0 | 0.0 | 0.00 | 0.00 | 0.00 | 28 | 1010.5 |
| 20260906004347 | 89 | 22 | 0.0 | 0.9 | 0.00 | 0.00 | 0.00 | 28 | 1010.4 |
| 20260906003843 | 88 | 49 | 0.0 | 0.0 | 0.00 | 0.00 | 0.00 | 28 | 1010.3 |
| 20260906003338 | 89 | 259 | 0.9 | 1.7 | 0.00 | 0.00 | 0.00 | 27 | 1010.4 |
| 20260906002833 | 88 | 260 | 0.9 | 0.9 | 0.00 | 0.00 | 0.00 | 26 | 1010.4 |
| 20260906002332 | 88 | 225 | 0.0 | 0.0 | 0.00 | 0.00 | 0.00 | 27 | 1010.4 |
| 20260906001828 | 88 | 329 | 0.9 | 0.9 | 0.00 | 0.00 | 0.00 | 27 | 1010.6 |
| 20260906001324 | 89 | 45 | 0.0 | 0.0 | 0.00 | 0.00 | 0.00 | 27 | 1010.4 |
| 20260906000819 | 87 | 259 | 0.9 | 1.7 | 0.00 | 0.00 | 0.00 | 28 | 1010.6 |
| 20260906000313 | 87 | 276 | 2.6 | 3.5 | 0.00 | 0.00 | 0.00 | 27 | 1010.4 |
| 20260905235808 | 88 | 251 | 2.6 | 3.5 | 0.00 | 0.00 | 0.00 | 26 | 1010.8 |
| 20260905235306 | 89 | 359 | 0.9 | 0.9 | 0.00 | 0.00 | 0.00 | 27 | 1010.4 |
| 20260905234758 | 88 | 241 | 0.9 | 0.9 | 0.00 | 0.00 | 0.00 | 28 | 1010.9 |
| 20260905234253 | 87 | 280 | 0.0 | 0.9 | 0.00 | 0.00 | 0.00 | 28 | 1010.9 |
| 20260905233748 | 87 | 265 | 4.3 | 5.2 | 0.00 | 0.00 | 0.00 | 28 | 1010.9 |
| 20260905233248 | 88 | 282 | 3.5 | 4.3 | 0.00 | 0.00 | 0.00 | 27 | 1010.9 |
| 20260905232747 | 87 | 66 | 0.9 | 0.9 | 0.00 | 0.00 | 0.00 | 28 | 1011.0 |
| 20260905232243 | 87 | 100 | 0.9 | 0.9 | 0.00 | 0.00 | 0.00 | 27 | 1010.9 |
| 20260905231739 | 86 | 21 | 1.7 | 1.7 | 0.00 | 0.00 | 0.00 | 28 | 1010.9 |
| 20260905231234 | 87 | 4 | 2.6 | 3.5 | 0.00 | 0.00 | 0.00 | 27 | 1011.2 |
| 20260905230731 | 87 | 350 | 0.9 | 0.9 | 0.00 | 0.00 | 0.00 | 27 | 1011.2 |
| 20260905230228 | 88 | 58 | 0.9 | 0.9 | 0.00 | 0.00 | 0.00 | 27 | 1011.2 |
| 20260905225728 | 89 | 200 | 0.0 | 0.9 | 0.00 | 0.00 | 0.00 | 27 | 1011.2 |
| 20260905225223 | 88 | 335 | 0.0 | 0.9 | 0.00 | 0.00 | 0.00 | 29 | 1011.1 |
| 20260905224722 | 87 | 252 | 1.7 | 1.7 | 0.00 | 0.00 | 0.00 | 28 | 1011.3 |
| 20260905224218 | 87 | 294 | 0.9 | 0.9 | 0.00 | 0.00 | 0.00 | 29 | 1011.3 |
| 20260905223714 | 87 | 253 | 0.9 | 0.9 | 0.00 | 0.00 | 0.00 | 28 | 1011.4 |
| 20260905223210 | 86 | 316 | 0.9 | 0.9 | 0.00 | 0.00 | 0.00 | 29 | 1011.5 |
| 20260905222706 | 86 | 275 | 5.2 | 5.2 | 0.00 | 0.00 | 0.00 | 28 | 1011.5 |
| 20260905222205 | 86 | 266 | 0.9 | 1.7 | 0.00 | 0.00 | 0.00 | 28 | 1011.7 |
| 20260905221701 | 86 | 235 | 1.7 | 1.7 | 0.00 | 0.00 | 0.00 | 28 | 1011.6 |
| 20260905221158 | 87 | 249 | 2.6 | 4.3 | 0.00 | 0.00 | 0.00 | 27 | 1011.8 |
| 20260905220653 | 86 | 18 | 2.6 | 4.3 | 0.00 | 0.00 | 0.00 | 28 | 1011.7 |
| 20260905220149 | 86 | 16 | 1.7 | 1.7 | 0.00 | 0.00 | 0.00 | 29 | 1011.9 |
| 20260905215649 | 86 | 20 | 0.9 | 1.7 | 0.00 | 0.00 | 0.00 | 29 | 1011.8 |
| 20260905215144 | 86 | 346 | 2.6 | 3.5 | 0.00 | 0.00 | 0.00 | 30 | 1012.1 |
| 20260905214640 | 86 | 52 | 1.7 | 1.7 | 0.00 | 0.00 | 0.00 | 29 | 1012.0 |
| 20260905214135 | 85 | 56 | 0.9 | 0.9 | 0.00 | 0.00 | 0.00 | 29 | 1012.3 |
| 20260905213630 | 85 | 97 | 0.9 | 0.9 | 0.00 | 0.00 | 0.00 | 29 | 1012.0 |
| 20260905213126 | 84 | 72 | 2.6 | 3.5 | 0.00 | 0.00 | 0.00 | 29 | 1012.2 |
| 20260905212621 | 86 | 94 | 1.7 | 1.7 | 0.00 | 0.00 | 0.00 | 28 | 1012.2 |
| 20260905212120 | 85 | 242 | 1.7 | 1.7 | 0.00 | 0.00 | 0.00 | 29 | 1012.3 |
| 20260905211615 | 85 | 77 | 0.9 | 0.9 | 0.00 | 0.00 | 0.00 | 29 | 1012.5 |
| 20260905211111 | 85 | 332 | 0.9 | 0.9 | 0.00 | 0.00 | 0.00 | 29 | 1012.3 |
| 20260905210607 | 85 | 15 | 0.9 | 1.7 | 0.00 | 0.00 | 0.00 | 29 | 1012.5 |